Time,TemperatureF,DewpointF,PressureIn,WindDirection,WindDirectionDegrees,WindSpeedMPH,WindSpeedGustMPH,Humidity,HourlyPrecipIn,Conditions,Clouds,dailyrainin,SolarRadiationWatts/m^2,SoftwareType,DateUTC
2013-07-21 00:00:00,50.0,47.0,-100.00,WNW,299,3.0,5.0,88,0.00,,,0.00,0.000000,,2013-07-21 04:00:00,
2013-07-21 00:01:00,50.0,47.0,-100.00,WNW,299,3.0,5.0,88,0.00,,,0.00,0.000000,,2013-07-21 04:01:00,
2013-07-21 00:11:00,50.0,47.0,-100.00,WNW,299,3.0,5.0,88,0.00,,,0.00,0.000000,,2013-07-21 04:11:00,
2013-07-21 00:43:00,48.0,46.0,-100.00,WNW,288,2.0,6.0,93,0.00,,,0.00,0.000000,,2013-07-21 04:43:00,
2013-07-21 00:53:00,48.0,46.0,-100.00,WNW,288,2.0,6.0,93,0.00,,,0.00,0.000000,,2013-07-21 04:53:00,
2013-07-21 01:02:00,48.0,46.0,-100.00,WNW,288,2.0,6.0,93,0.00,,,0.00,0.000000,,2013-07-21 05:02:00,
2013-07-21 01:11:00,48.0,46.0,-100.00,WNW,288,2.0,6.0,93,0.00,,,0.00,0.000000,,2013-07-21 05:11:00,
2013-07-21 01:42:00,46.0,45.0,-100.00,WNW,291,2.0,3.0,97,0.00,,,0.00,0.000000,,2013-07-21 05:42:00,
2013-07-21 01:52:00,46.0,45.0,-100.00,WNW,291,2.0,3.0,97,0.00,,,0.00,0.000000,,2013-07-21 05:52:00,
2013-07-21 02:01:00,46.0,45.0,-100.00,WNW,291,2.0,3.0,97,0.00,,,0.00,0.000000,,2013-07-21 06:01:00,
2013-07-21 02:11:00,46.0,45.0,-100.00,WNW,291,2.0,3.0,97,0.00,,,0.00,0.000000,,2013-07-21 06:11:00,
2013-07-21 02:43:00,45.0,44.0,-100.00,SW,224,1.0,3.0,97,0.00,,,0.00,0.000000,,2013-07-21 06:43:00,
2013-07-21 02:53:00,45.0,44.0,-100.00,SW,224,1.0,3.0,97,0.00,,,0.00,0.000000,,2013-07-21 06:53:00,
2013-07-21 03:01:00,45.0,44.0,-100.00,SW,224,1.0,3.0,97,0.00,,,0.00,0.000000,,2013-07-21 07:01:00,
2013-07-21 03:11:00,45.0,44.0,-100.00,SW,224,1.0,3.0,97,0.00,,,0.00,0.000000,,2013-07-21 07:11:00,
2013-07-21 03:43:00,44.0,43.0,-100.00,WNW,301,1.0,4.0,98,0.00,,,0.00,0.000000,,2013-07-21 07:43:00,
2013-07-21 03:53:00,44.0,43.0,-100.00,WNW,301,1.0,4.0,98,0.00,,,0.00,0.000000,,2013-07-21 07:53:00,
2013-07-21 04:02:00,44.0,43.0,-100.00,WNW,301,1.0,4.0,98,0.00,,,0.00,0.000000,,2013-07-21 08:02:00,
2013-07-21 04:11:00,44.0,43.0,-100.00,WNW,301,1.0,4.0,98,0.00,,,0.00,0.000000,,2013-07-21 08:11:00,
2013-07-21 04:43:00,43.0,42.0,-100.00,SSE,168,0.0,3.0,98,0.00,,,0.00,0.000000,,2013-07-21 08:43:00,
2013-07-21 04:52:00,43.0,42.0,-100.00,SSE,168,0.0,3.0,98,0.00,,,0.00,0.000000,,2013-07-21 08:52:00,
2013-07-21 05:02:00,43.0,42.0,-100.00,SSE,168,0.0,3.0,98,0.00,,,0.00,0.000000,,2013-07-21 09:02:00,
2013-07-21 05:12:00,43.0,42.0,-100.00,SSE,168,0.0,3.0,98,0.00,,,0.00,0.000000,,2013-07-21 09:12:00,
2013-07-21 05:42:00,42.0,41.0,-100.00,WNW,283,0.0,3.0,98,0.00,,,0.00,0.000000,,2013-07-21 09:42:00,
2013-07-21 05:52:00,42.0,41.0,-100.00,WNW,283,0.0,3.0,98,0.00,,,0.00,0.000000,,2013-07-21 09:52:00,
2013-07-21 06:02:00,42.0,41.0,-100.00,WNW,283,0.0,3.0,98,0.00,,,0.00,0.000000,,2013-07-21 10:02:00,
2013-07-21 06:11:00,42.0,41.0,-100.00,WNW,283,0.0,3.0,98,0.00,,,0.00,0.000000,,2013-07-21 10:11:00,
2013-07-21 06:43:00,43.0,43.0,-100.00,WSW,247,0.0,4.0,99,0.00,,,0.00,1.000000,,2013-07-21 10:43:00,
2013-07-21 06:52:00,43.0,43.0,-100.00,WSW,247,0.0,4.0,99,0.00,,,0.00,1.000000,,2013-07-21 10:52:00,
2013-07-21 07:02:00,43.0,43.0,-100.00,WSW,247,0.0,4.0,99,0.00,,,0.00,1.000000,,2013-07-21 11:02:00,
2013-07-21 07:12:00,43.0,43.0,-100.00,WSW,247,0.0,4.0,99,0.00,,,0.00,1.000000,,2013-07-21 11:12:00,
2013-07-21 07:43:00,45.0,44.0,-100.00,ESE,116,0.0,2.0,98,0.00,,,0.00,48.000000,,2013-07-21 11:43:00,
2013-07-21 07:52:00,45.0,44.0,-100.00,ESE,116,0.0,2.0,98,0.00,,,0.00,48.000000,,2013-07-21 11:52:00,
2013-07-21 08:01:00,45.0,44.0,-100.00,ESE,116,0.0,2.0,98,0.00,,,0.00,48.000000,,2013-07-21 12:01:00,
2013-07-21 08:11:00,45.0,44.0,-100.00,ESE,116,0.0,2.0,98,0.00,,,0.00,48.000000,,2013-07-21 12:11:00,
2013-07-21 08:43:00,55.0,54.0,-100.00,East,80,4.0,6.0,95,-99.99,,,0.00,226.000000,,2013-07-21 12:43:00,
2013-07-21 08:53:00,55.0,54.0,-100.00,East,80,4.0,6.0,95,-99.99,,,0.00,226.000000,,2013-07-21 12:53:00,
2013-07-21 09:02:00,55.0,54.0,-100.00,East,80,4.0,6.0,95,-99.99,,,0.00,226.000000,,2013-07-21 13:02:00,
2013-07-21 09:12:00,55.0,54.0,-100.00,East,80,4.0,6.0,95,-99.99,,,0.00,226.000000,,2013-07-21 13:12:00,
2013-07-21 10:12:00,62.0,54.0,-100.00,ESE,110,8.0,13.0,76,0.00,,,0.00,445.000000,,2013-07-21 14:12:00,
2013-07-21 11:11:00,65.0,55.0,-100.00,SE,137,10.0,14.0,70,0.00,,,0.00,634.000000,,2013-07-21 15:11:00,
2013-07-21 12:01:00,65.0,53.0,-100.00,SE,133,7.0,15.0,65,0.00,,,0.00,654.000000,,2013-07-21 16:01:00,
2013-07-21 12:11:00,65.0,53.0,-100.00,SE,133,7.0,15.0,65,0.00,,,0.00,654.000000,,2013-07-21 16:11:00,
2013-07-21 13:11:00,70.0,53.0,-100.00,SE,146,9.0,14.0,54,0.00,,,0.00,1000.000000,,2013-07-21 17:11:00,
2013-07-21 14:11:00,70.0,52.0,-100.00,SE,142,7.0,14.0,52,0.00,,,0.00,1013.000000,,2013-07-21 18:11:00,
2013-07-21 15:11:00,72.0,51.0,-100.00,SSE,157,8.0,13.0,48,0.00,,,0.00,1104.000000,,2013-07-21 19:11:00,
2013-07-21 16:12:00,72.0,52.0,-100.00,SSE,162,6.0,14.0,49,0.00,,,0.00,1057.000000,,2013-07-21 20:12:00,
2013-07-21 17:11:00,73.0,51.0,-100.00,SSE,165,6.0,14.0,46,0.00,,,0.00,939.000000,,2013-07-21 21:11:00,
2013-07-21 18:11:00,73.0,52.0,-100.00,SSW,200,7.0,13.0,47,0.00,,,0.00,772.000000,,2013-07-21 22:11:00,
2013-07-21 19:11:00,72.0,52.0,-100.00,SW,218,7.0,12.0,50,0.00,,,0.00,602.000000,,2013-07-21 23:11:00,
2013-07-21 20:11:00,68.0,54.0,-100.00,SSW,193,7.0,12.0,62,0.00,,,0.00,333.000000,,2013-07-22 00:11:00,
2013-07-21 22:11:00,60.0,52.0,-100.00,SSE,149,5.0,10.0,74,-99.99,,,0.00,68.000000,,2013-07-22 02:11:00,
2013-07-21 22:43:00,59.0,51.0,-100.00,East,101,3.0,5.0,76,0.00,,,0.00,1.000000,,2013-07-22 02:43:00,
2013-07-21 22:52:00,59.0,51.0,-100.00,East,101,3.0,5.0,76,0.00,,,0.00,1.000000,,2013-07-22 02:52:00,
2013-07-21 23:01:00,59.0,51.0,-100.00,East,101,3.0,5.0,76,0.00,,,0.00,1.000000,,2013-07-22 03:01:00,
2013-07-21 23:12:00,59.0,51.0,-100.00,East,101,3.0,5.0,76,0.00,,,0.00,1.000000,,2013-07-22 03:12:00,
2013-07-21 23:43:00,59.0,54.0,-100.00,ESE,118,4.0,5.0,82,0.00,,,0.00,0.000000,,2013-07-22 03:43:00,
2013-07-21 23:53:00,59.0,54.0,-100.00,ESE,118,4.0,5.0,82,0.00,,,0.00,0.000000,,2013-07-22 03:53:00,